owner,sensor,date,latitude,longitude,sea_water_turbidity,qcFlag 
SCCF RECON,ioos:station:SCCF:12:1,2009-04-01T00:00:00Z,26.4966,-82.1479,4.54,1111122 
SCCF RECON,ioos:station:SCCF:12:1,2009-04-01T01:00:00Z,26.4966,-82.1479,4.73,1111122 
SCCF RECON,ioos:station:SCCF:12:1,2009-04-01T02:00:00Z,26.4966,-82.1479,4.8,1111122 
SCCF RECON,ioos:station:SCCF:12:1,2009-04-01T03:00:00Z,26.4966,-82.1479,4.76,1111122 
SCCF RECON,ioos:station:SCCF:12:1,2009-04-01T04:00:00Z,26.4966,-82.1479,5.83,1111122 
SCCF RECON,ioos:station:SCCF:12:1,2009-04-01T05:00:00Z,26.4966,-82.1479,5.8,1111122 
SCCF RECON,ioos:station:SCCF:12:1,2009-04-01T06:00:00Z,26.4966,-82.1479,5.56,1111122 
SCCF RECON,ioos:station:SCCF:12:1,2009-04-01T07:00:00Z,26.4966,-82.1479,7.49,1111122 
SCCF RECON,ioos:station:SCCF:12:1,2009-04-01T08:00:00Z,26.4966,-82.1479,4.79,1111122 
SCCF RECON,ioos:station:SCCF:12:1,2009-04-01T09:00:00Z,26.4966,-82.1479,5.75,1111122 
SCCF RECON,ioos:station:SCCF:12:1,2009-04-01T10:00:00Z,26.4966,-82.1479,5.96,1111122 
SCCF RECON,ioos:station:SCCF:12:1,2009-04-01T11:00:00Z,26.4966,-82.1479,4.99,1111122 
SCCF RECON,ioos:station:SCCF:12:1,2009-04-01T12:00:00Z,26.4966,-82.1479,4.76,1111122 
SCCF RECON,ioos:station:SCCF:12:1,2009-04-01T13:00:00Z,26.4966,-82.1479,4.65,1111122 
SCCF RECON,ioos:station:SCCF:12:1,2009-04-01T14:00:00Z,26.4966,-82.1479,4.82,1111122 
SCCF RECON,ioos:station:SCCF:12:1,2009-04-01T15:00:00Z,26.4966,-82.1479,5.03,1111122 
SCCF RECON,ioos:station:SCCF:12:1,2009-04-01T16:00:00Z,26.4966,-82.1479,5.36,1111122 
SCCF RECON,ioos:station:SCCF:12:1,2009-04-01T17:00:00Z,26.4966,-82.1479,5.12,1111122 
SCCF RECON,ioos:station:SCCF:12:1,2009-04-01T18:00:00Z,26.4966,-82.1479,5.33,1111122 
SCCF RECON,ioos:station:SCCF:12:1,2009-04-01T19:00:00Z,26.4966,-82.1479,5.82,1111122 
SCCF RECON,ioos:station:SCCF:12:1,2009-04-01T20:00:00Z,26.4966,-82.1479,5.67,1111122 
SCCF RECON,ioos:station:SCCF:12:1,2009-04-01T21:00:00Z,26.4966,-82.1479,5.67,1111122 
SCCF RECON,ioos:station:SCCF:12:1,2009-04-01T22:00:00Z,26.4966,-82.1479,5.39,1111122 
SCCF RECON,ioos:station:SCCF:12:1,2009-04-01T23:00:00Z,26.4966,-82.1479,5.65,1111122 
SCCF RECON,ioos:station:SCCF:12:1,2009-04-02T00:00:00Z,26.4966,-82.1479,5.06,1111122 
SCCF RECON,ioos:station:SCCF:12:1,2009-04-02T01:00:00Z,26.4966,-82.1479,5.49,1111122 
SCCF RECON,ioos:station:SCCF:12:1,2009-04-02T02:00:00Z,26.4966,-82.1479,5.18,1111122 
SCCF RECON,ioos:station:SCCF:12:1,2009-04-02T03:00:00Z,26.4966,-82.1479,5.2,1111122 
SCCF RECON,ioos:station:SCCF:12:1,2009-04-02T04:00:00Z,26.4966,-82.1479,4.97,1111122 
SCCF RECON,ioos:station:SCCF:12:1,2009-04-02T05:00:00Z,26.4966,-82.1479,4.31,1111122 
SCCF RECON,ioos:station:SCCF:12:1,2009-04-02T06:00:00Z,26.4966,-82.1479,5.57,1111122 
SCCF RECON,ioos:station:SCCF:12:1,2009-04-02T07:00:00Z,26.4966,-82.1479,5.41,1111122 
SCCF RECON,ioos:station:SCCF:12:1,2009-04-02T08:00:00Z,26.4966,-82.1479,5.15,1111122 
SCCF RECON,ioos:station:SCCF:12:1,2009-04-02T09:00:00Z,26.4966,-82.1479,4.6,1111122 
SCCF RECON,ioos:station:SCCF:12:1,2009-04-02T10:00:00Z,26.4966,-82.1479,5.06,1111122 
SCCF RECON,ioos:station:SCCF:12:1,2009-04-02T11:00:00Z,26.4966,-82.1479,5.49,1111122 
SCCF RECON,ioos:station:SCCF:12:1,2009-04-02T12:00:00Z,26.4966,-82.1479,5.65,1111122 
SCCF RECON,ioos:station:SCCF:12:1,2009-04-02T13:00:00Z,26.4966,-82.1479,5.49,1111122 
SCCF RECON,ioos:station:SCCF:12:1,2009-04-02T14:00:00Z,26.4966,-82.1479,5.54,1111122 
SCCF RECON,ioos:station:SCCF:12:1,2009-04-02T15:00:00Z,26.4966,-82.1479,5.79,1111122 
SCCF RECON,ioos:station:SCCF:12:1,2009-04-02T16:00:00Z,26.4966,-82.1479,6.11,1111122 
SCCF RECON,ioos:station:SCCF:12:1,2009-04-02T17:00:00Z,26.4966,-82.1479,6.09,1111122 
SCCF RECON,ioos:station:SCCF:12:1,2009-04-02T18:00:00Z,26.4966,-82.1479,6.07,1111122 
SCCF RECON,ioos:station:SCCF:12:1,2009-04-02T19:00:00Z,26.4966,-82.1479,5.87,1111122 
SCCF RECON,ioos:station:SCCF:12:1,2009-04-02T20:00:00Z,26.4966,-82.1479,5.88,1111122 
SCCF RECON,ioos:station:SCCF:12:1,2009-04-02T21:00:00Z,26.4966,-82.1479,5.16,1111122 
SCCF RECON,ioos:station:SCCF:12:1,2009-04-02T22:00:00Z,26.4966,-82.1479,5.01,1111122 
SCCF RECON,ioos:station:SCCF:12:1,2009-04-02T23:00:00Z,26.4966,-82.1479,5.18,1111122 
SCCF RECON,ioos:station:SCCF:12:1,2009-04-03T00:00:00Z,26.4966,-82.1479,5.05,1111122 
SCCF RECON,ioos:station:SCCF:12:1,2009-04-03T01:00:00Z,26.4966,-82.1479,5.14,1111122 
SCCF RECON,ioos:station:SCCF:12:1,2009-04-03T02:00:00Z,26.4966,-82.1479,5.46,1111122 
SCCF RECON,ioos:station:SCCF:12:1,2009-04-03T03:00:00Z,26.4966,-82.1479,5.33,1111122 
SCCF RECON,ioos:station:SCCF:12:1,2009-04-03T04:00:00Z,26.4966,-82.1479,5.59,1111122 
SCCF RECON,ioos:station:SCCF:12:1,2009-04-03T05:00:00Z,26.4966,-82.1479,5.44,1111122 
SCCF RECON,ioos:station:SCCF:12:1,2009-04-03T06:00:00Z,26.4966,-82.1479,5.75,1111122 
SCCF RECON,ioos:station:SCCF:12:1,2009-04-03T07:00:00Z,26.4966,-82.1479,5.6,1111122 
SCCF RECON,ioos:station:SCCF:12:1,2009-04-03T08:00:00Z,26.4966,-82.1479,5.77,1111122 
SCCF RECON,ioos:station:SCCF:12:1,2009-04-03T09:00:00Z,26.4966,-82.1479,5.68,1111122 
SCCF RECON,ioos:station:SCCF:12:1,2009-04-03T10:00:00Z,26.4966,-82.1479,17.06,1111122 
SCCF RECON,ioos:station:SCCF:12:1,2009-04-03T11:00:00Z,26.4966,-82.1479,4.93,1111122 
SCCF RECON,ioos:station:SCCF:12:1,2009-04-03T12:00:00Z,26.4966,-82.1479,5.97,1111122 
SCCF RECON,ioos:station:SCCF:12:1,2009-04-03T13:00:00Z,26.4966,-82.1479,6.18,1111122 
SCCF RECON,ioos:station:SCCF:12:1,2009-04-03T14:00:00Z,26.4966,-82.1479,6.21,1111122 
SCCF RECON,ioos:station:SCCF:12:1,2009-04-03T15:00:00Z,26.4966,-82.1479,6.04,1111122 
SCCF RECON,ioos:station:SCCF:12:1,2009-04-03T16:00:00Z,26.4966,-82.1479,6.61,1111122 
SCCF RECON,ioos:station:SCCF:12:1,2009-04-03T17:00:00Z,26.4966,-82.1479,6.8,1111122 
SCCF RECON,ioos:station:SCCF:12:1,2009-04-03T18:00:00Z,26.4966,-82.1479,5.96,1111122 
SCCF RECON,ioos:station:SCCF:12:1,2009-04-03T19:00:00Z,26.4966,-82.1479,6.36,1111122 
SCCF RECON,ioos:station:SCCF:12:1,2009-04-03T20:00:00Z,26.4966,-82.1479,5.94,1111122 
SCCF RECON,ioos:station:SCCF:12:1,2009-04-03T21:00:00Z,26.4966,-82.1479,5.79,1111122 
SCCF RECON,ioos:station:SCCF:12:1,2009-04-03T22:00:00Z,26.4966,-82.1479,6.09,1111122 
SCCF RECON,ioos:station:SCCF:12:1,2009-04-03T23:00:00Z,26.4966,-82.1479,5.12,1111122 
SCCF RECON,ioos:station:SCCF:12:1,2009-04-04T00:00:00Z,26.4966,-82.1479,5.41,1111122 
SCCF RECON,ioos:station:SCCF:12:1,2009-04-04T01:00:00Z,26.4966,-82.1479,7.41,1111122 
SCCF RECON,ioos:station:SCCF:12:1,2009-04-04T02:00:00Z,26.4966,-82.1479,10.84,1111122 
SCCF RECON,ioos:station:SCCF:12:1,2009-04-04T03:00:00Z,26.4966,-82.1479,5.74,1111122 
SCCF RECON,ioos:station:SCCF:12:1,2009-04-04T04:00:00Z,26.4966,-82.1479,4.6,1111122 
SCCF RECON,ioos:station:SCCF:12:1,2009-04-04T05:00:00Z,26.4966,-82.1479,5.24,1111122 
SCCF RECON,ioos:station:SCCF:12:1,2009-04-04T06:00:00Z,26.4966,-82.1479,5.61,1111122 
SCCF RECON,ioos:station:SCCF:12:1,2009-04-04T07:00:00Z,26.4966,-82.1479,5.69,1111122 
SCCF RECON,ioos:station:SCCF:12:1,2009-04-04T08:00:00Z,26.4966,-82.1479,5.45,1111122 
SCCF RECON,ioos:station:SCCF:12:1,2009-04-04T09:00:00Z,26.4966,-82.1479,5.88,1111122 
SCCF RECON,ioos:station:SCCF:12:1,2009-04-04T10:00:00Z,26.4966,-82.1479,5.39,1111122 
SCCF RECON,ioos:station:SCCF:12:1,2009-04-04T11:00:00Z,26.4966,-82.1479,5.24,1111122 
SCCF RECON,ioos:station:SCCF:12:1,2009-04-04T12:00:00Z,26.4966,-82.1479,4.94,1111122 
SCCF RECON,ioos:station:SCCF:12:1,2009-04-04T13:00:00Z,26.4966,-82.1479,4.74,1111122 
SCCF RECON,ioos:station:SCCF:12:1,2009-04-04T14:00:00Z,26.4966,-82.1479,5.69,1111122 
SCCF RECON,ioos:station:SCCF:12:1,2009-04-04T15:00:00Z,26.4966,-82.1479,6.87,1111122 
SCCF RECON,ioos:station:SCCF:12:1,2009-04-04T16:00:00Z,26.4966,-82.1479,6.38,1111122 
SCCF RECON,ioos:station:SCCF:12:1,2009-04-04T17:00:00Z,26.4966,-82.1479,6.11,1111122 
SCCF RECON,ioos:station:SCCF:12:1,2009-04-04T18:00:00Z,26.4966,-82.1479,6.54,1111122 
SCCF RECON,ioos:station:SCCF:12:1,2009-04-04T19:00:00Z,26.4966,-82.1479,5.7,1111122 
SCCF RECON,ioos:station:SCCF:12:1,2009-04-04T20:00:00Z,26.4966,-82.1479,4.19,1111122 
SCCF RECON,ioos:station:SCCF:12:1,2009-04-04T21:00:00Z,26.4966,-82.1479,5.76,1111122 
SCCF RECON,ioos:station:SCCF:12:1,2009-04-04T22:00:00Z,26.4966,-82.1479,5.86,1111122 
SCCF RECON,ioos:station:SCCF:12:1,2009-04-04T23:00:00Z,26.4966,-82.1479,6.48,1111122 
SCCF RECON,ioos:station:SCCF:12:1,2009-04-05T00:00:00Z,26.4966,-82.1479,4.5,1111122 
SCCF RECON,ioos:station:SCCF:12:1,2009-04-05T01:00:00Z,26.4966,-82.1479,5.09,1111122 
SCCF RECON,ioos:station:SCCF:12:1,2009-04-05T02:00:00Z,26.4966,-82.1479,5.92,1111122 
SCCF RECON,ioos:station:SCCF:12:1,2009-04-05T03:00:00Z,26.4966,-82.1479,5.45,1111122 
SCCF RECON,ioos:station:SCCF:12:1,2009-04-05T04:00:00Z,26.4966,-82.1479,4.76,1111122 
SCCF RECON,ioos:station:SCCF:12:1,2009-04-05T05:00:00Z,26.4966,-82.1479,5.14,1111122 
SCCF RECON,ioos:station:SCCF:12:1,2009-04-05T06:00:00Z,26.4966,-82.1479,5.12,1111122 
SCCF RECON,ioos:station:SCCF:12:1,2009-04-05T07:00:00Z,26.4966,-82.1479,5.07,1111122 
SCCF RECON,ioos:station:SCCF:12:1,2009-04-05T08:00:00Z,26.4966,-82.1479,4.56,1111122 
SCCF RECON,ioos:station:SCCF:12:1,2009-04-05T09:00:00Z,26.4966,-82.1479,4.56,1111122 
SCCF RECON,ioos:station:SCCF:12:1,2009-04-05T10:00:00Z,26.4966,-82.1479,5.38,1111122 
SCCF RECON,ioos:station:SCCF:12:1,2009-04-05T11:00:00Z,26.4966,-82.1479,6.1,1111122 
SCCF RECON,ioos:station:SCCF:12:1,2009-04-05T12:00:00Z,26.4966,-82.1479,5.25,1111122 
SCCF RECON,ioos:station:SCCF:12:1,2009-04-05T13:00:00Z,26.4966,-82.1479,4.39,1111122 
SCCF RECON,ioos:station:SCCF:12:1,2009-04-05T14:00:00Z,26.4966,-82.1479,5.22,1111122 
SCCF RECON,ioos:station:SCCF:12:1,2009-04-05T15:00:00Z,26.4966,-82.1479,5.56,1111122 
SCCF RECON,ioos:station:SCCF:12:1,2009-04-05T16:00:00Z,26.4966,-82.1479,6.45,1111122 
SCCF RECON,ioos:station:SCCF:12:1,2009-04-05T17:00:00Z,26.4966,-82.1479,5.04,1111122 
SCCF RECON,ioos:station:SCCF:12:1,2009-04-05T18:00:00Z,26.4966,-82.1479,4.88,1111122 
SCCF RECON,ioos:station:SCCF:12:1,2009-04-05T19:00:00Z,26.4966,-82.1479,4.44,1111122 
SCCF RECON,ioos:station:SCCF:12:1,2009-04-05T20:00:00Z,26.4966,-82.1479,4.79,1111122 
SCCF RECON,ioos:station:SCCF:12:1,2009-04-05T21:00:00Z,26.4966,-82.1479,4.66,1111122 
SCCF RECON,ioos:station:SCCF:12:1,2009-04-05T22:00:00Z,26.4966,-82.1479,5.03,1111122 
SCCF RECON,ioos:station:SCCF:12:1,2009-04-05T23:00:00Z,26.4966,-82.1479,5.22,1111122 
SCCF RECON,ioos:station:SCCF:12:1,2009-04-06T00:00:00Z,26.4966,-82.1479,5.36,1111122 
SCCF RECON,ioos:station:SCCF:12:1,2009-04-06T01:00:00Z,26.4966,-82.1479,5.04,1111122 
SCCF RECON,ioos:station:SCCF:12:1,2009-04-06T02:00:00Z,26.4966,-82.1479,5.42,1111122 
SCCF RECON,ioos:station:SCCF:12:1,2009-04-06T03:00:00Z,26.4966,-82.1479,5.51,1111122 
SCCF RECON,ioos:station:SCCF:12:1,2009-04-06T04:00:00Z,26.4966,-82.1479,5.3,1111122 
SCCF RECON,ioos:station:SCCF:12:1,2009-04-06T05:00:00Z,26.4966,-82.1479,5.62,1111122 
SCCF RECON,ioos:station:SCCF:12:1,2009-04-06T06:00:00Z,26.4966,-82.1479,4.43,1111122 
SCCF RECON,ioos:station:SCCF:12:1,2009-04-06T07:00:00Z,26.4966,-82.1479,4.22,1111122 
SCCF RECON,ioos:station:SCCF:12:1,2009-04-06T08:00:00Z,26.4966,-82.1479,4.41,1111122 
SCCF RECON,ioos:station:SCCF:12:1,2009-04-06T09:00:00Z,26.4966,-82.1479,4.69,1111122 
SCCF RECON,ioos:station:SCCF:12:1,2009-04-06T10:00:00Z,26.4966,-82.1479,5.0,1111122 
SCCF RECON,ioos:station:SCCF:12:1,2009-04-06T11:00:00Z,26.4966,-82.1479,5.16,1111122 
SCCF RECON,ioos:station:SCCF:12:1,2009-04-06T12:00:00Z,26.4966,-82.1479,5.03,1111122 
SCCF RECON,ioos:station:SCCF:12:1,2009-04-06T13:00:00Z,26.4966,-82.1479,4.77,1111122 
SCCF RECON,ioos:station:SCCF:12:1,2009-04-06T14:00:00Z,26.4966,-82.1479,4.87,1111122 
SCCF RECON,ioos:station:SCCF:12:1,2009-04-06T15:00:00Z,26.4966,-82.1479,5.45,1111122 
SCCF RECON,ioos:station:SCCF:12:1,2009-04-06T16:00:00Z,26.4966,-82.1479,4.7,1111122 
SCCF RECON,ioos:station:SCCF:12:1,2009-04-06T17:00:00Z,26.4966,-82.1479,4.52,1111122 
SCCF RECON,ioos:station:SCCF:12:1,2009-04-06T18:00:00Z,26.4966,-82.1479,4.95,1111122 
SCCF RECON,ioos:station:SCCF:12:1,2009-04-06T19:00:00Z,26.4966,-82.1479,5.01,1111122 
SCCF RECON,ioos:station:SCCF:12:1,2009-04-06T20:00:00Z,26.4966,-82.1479,4.56,1111122 
SCCF RECON,ioos:station:SCCF:12:1,2009-04-06T21:00:00Z,26.4966,-82.1479,4.6,1111122 
SCCF RECON,ioos:station:SCCF:12:1,2009-04-06T22:00:00Z,26.4966,-82.1479,5.71,1111122 
SCCF RECON,ioos:station:SCCF:12:1,2009-04-06T23:00:00Z,26.4966,-82.1479,6.92,1111122 
SCCF RECON,ioos:station:SCCF:12:1,2009-04-07T00:00:00Z,26.4966,-82.1479,7.1,1111122 
SCCF RECON,ioos:station:SCCF:12:1,2009-04-07T01:00:00Z,26.4966,-82.1479,6.65,1111122 
SCCF RECON,ioos:station:SCCF:12:1,2009-04-07T02:00:00Z,26.4966,-82.1479,7.89,1111122 
SCCF RECON,ioos:station:SCCF:12:1,2009-04-07T03:00:00Z,26.4966,-82.1479,9.51,1111122 
SCCF RECON,ioos:station:SCCF:12:1,2009-04-07T04:00:00Z,26.4966,-82.1479,9.31,1111122 
SCCF RECON,ioos:station:SCCF:12:1,2009-04-07T05:00:00Z,26.4966,-82.1479,8.8,1111122 
SCCF RECON,ioos:station:SCCF:12:1,2009-04-07T06:00:00Z,26.4966,-82.1479,8.05,1111122 
SCCF RECON,ioos:station:SCCF:12:1,2009-04-07T07:00:00Z,26.4966,-82.1479,8.51,1111122 
SCCF RECON,ioos:station:SCCF:12:1,2009-04-07T08:00:00Z,26.4966,-82.1479,9.06,1111122 
SCCF RECON,ioos:station:SCCF:12:1,2009-04-07T09:00:00Z,26.4966,-82.1479,10.17,1111122 
SCCF RECON,ioos:station:SCCF:12:1,2009-04-07T10:00:00Z,26.4966,-82.1479,11.95,1111122 
SCCF RECON,ioos:station:SCCF:12:1,2009-04-07T11:00:00Z,26.4966,-82.1479,14.94,1111122 
SCCF RECON,ioos:station:SCCF:12:1,2009-04-07T12:00:00Z,26.4966,-82.1479,15.01,1111122 
SCCF RECON,ioos:station:SCCF:12:1,2009-04-07T13:00:00Z,26.4966,-82.1479,19.44,1111122 
SCCF RECON,ioos:station:SCCF:12:1,2009-04-07T14:00:00Z,26.4966,-82.1479,18.62,1111122 
SCCF RECON,ioos:station:SCCF:12:1,2009-04-07T15:00:00Z,26.4966,-82.1479,20.35,1111122 
SCCF RECON,ioos:station:SCCF:12:1,2009-04-07T16:00:00Z,26.4966,-82.1479,21.4,1111122 
SCCF RECON,ioos:station:SCCF:12:1,2009-04-07T17:00:00Z,26.4966,-82.1479,22.38,1111122 
SCCF RECON,ioos:station:SCCF:12:1,2009-04-07T18:00:00Z,26.4966,-82.1479,17.4,1111122 
SCCF RECON,ioos:station:SCCF:12:1,2009-04-07T19:00:00Z,26.4966,-82.1479,17.67,1111122 
SCCF RECON,ioos:station:SCCF:12:1,2009-04-07T20:00:00Z,26.4966,-82.1479,17.49,1111122 
SCCF RECON,ioos:station:SCCF:12:1,2009-04-07T21:00:00Z,26.4966,-82.1479,18.33,1111122 
SCCF RECON,ioos:station:SCCF:12:1,2009-04-07T22:00:00Z,26.4966,-82.1479,18.37,1111122 
SCCF RECON,ioos:station:SCCF:12:1,2009-04-07T23:00:00Z,26.4966,-82.1479,20.4,1111122 
SCCF RECON,ioos:station:SCCF:12:1,2009-04-08T00:00:00Z,26.4966,-82.1479,22.64,1111122 
SCCF RECON,ioos:station:SCCF:12:1,2009-04-08T01:00:00Z,26.4966,-82.1479,27.22,1111122 
SCCF RECON,ioos:station:SCCF:12:1,2009-04-08T02:00:00Z,26.4966,-82.1479,23.83,1111122 
SCCF RECON,ioos:station:SCCF:12:1,2009-04-08T03:00:00Z,26.4966,-82.1479,21.99,1111122 
SCCF RECON,ioos:station:SCCF:12:1,2009-04-08T04:00:00Z,26.4966,-82.1479,15.93,1111122 
SCCF RECON,ioos:station:SCCF:12:1,2009-04-08T05:00:00Z,26.4966,-82.1479,14.44,1111122 
SCCF RECON,ioos:station:SCCF:12:1,2009-04-08T06:00:00Z,26.4966,-82.1479,14.24,1111122 
SCCF RECON,ioos:station:SCCF:12:1,2009-04-08T07:00:00Z,26.4966,-82.1479,15.18,1111122 
SCCF RECON,ioos:station:SCCF:12:1,2009-04-08T08:00:00Z,26.4966,-82.1479,14.87,1111122 
SCCF RECON,ioos:station:SCCF:12:1,2009-04-08T09:00:00Z,26.4966,-82.1479,14.39,1111122 
SCCF RECON,ioos:station:SCCF:12:1,2009-04-08T10:00:00Z,26.4966,-82.1479,14.78,1111122 
SCCF RECON,ioos:station:SCCF:12:1,2009-04-08T11:00:00Z,26.4966,-82.1479,14.48,1111122 
SCCF RECON,ioos:station:SCCF:12:1,2009-04-08T12:00:00Z,26.4966,-82.1479,14.33,1111122 
SCCF RECON,ioos:station:SCCF:12:1,2009-04-08T13:00:00Z,26.4966,-82.1479,16.59,1111122 
SCCF RECON,ioos:station:SCCF:12:1,2009-04-08T14:00:00Z,26.4966,-82.1479,13.89,1111122 
SCCF RECON,ioos:station:SCCF:12:1,2009-04-08T15:00:00Z,26.4966,-82.1479,10.37,1111122 
SCCF RECON,ioos:station:SCCF:12:1,2009-04-08T16:00:00Z,26.4966,-82.1479,9.95,1111122 
SCCF RECON,ioos:station:SCCF:12:1,2009-04-08T17:00:00Z,26.4966,-82.1479,17.84,1111122 
SCCF RECON,ioos:station:SCCF:12:1,2009-04-08T18:00:00Z,26.4966,-82.1479,13.39,1111122 
SCCF RECON,ioos:station:SCCF:12:1,2009-04-08T19:00:00Z,26.4966,-82.1479,11.14,1111122 
SCCF RECON,ioos:station:SCCF:12:1,2009-04-08T20:00:00Z,26.4966,-82.1479,11.04,1111122 
SCCF RECON,ioos:station:SCCF:12:1,2009-04-08T21:00:00Z,26.4966,-82.1479,8.32,1111122 
SCCF RECON,ioos:station:SCCF:12:1,2009-04-08T22:00:00Z,26.4966,-82.1479,6.55,1111122 
SCCF RECON,ioos:station:SCCF:12:1,2009-04-08T23:00:00Z,26.4966,-82.1479,6.36,1111122 
SCCF RECON,ioos:station:SCCF:12:1,2009-04-09T00:00:00Z,26.4966,-82.1479,6.79,1111122 
SCCF RECON,ioos:station:SCCF:12:1,2009-04-09T01:00:00Z,26.4966,-82.1479,10.19,1111122 
SCCF RECON,ioos:station:SCCF:12:1,2009-04-09T02:00:00Z,26.4966,-82.1479,10.19,1111122 
SCCF RECON,ioos:station:SCCF:12:1,2009-04-09T03:00:00Z,26.4966,-82.1479,10.45,1111122 
SCCF RECON,ioos:station:SCCF:12:1,2009-04-09T04:00:00Z,26.4966,-82.1479,8.06,1111122 
SCCF RECON,ioos:station:SCCF:12:1,2009-04-09T05:00:00Z,26.4966,-82.1479,8.47,1111122 
SCCF RECON,ioos:station:SCCF:12:1,2009-04-09T06:00:00Z,26.4966,-82.1479,10.0,1111122 
SCCF RECON,ioos:station:SCCF:12:1,2009-04-09T07:00:00Z,26.4966,-82.1479,8.28,1111122 
SCCF RECON,ioos:station:SCCF:12:1,2009-04-09T08:00:00Z,26.4966,-82.1479,8.61,1111122 
SCCF RECON,ioos:station:SCCF:12:1,2009-04-09T09:00:00Z,26.4966,-82.1479,8.17,1111122 
SCCF RECON,ioos:station:SCCF:12:1,2009-04-09T10:00:00Z,26.4966,-82.1479,8.02,1111122 
SCCF RECON,ioos:station:SCCF:12:1,2009-04-09T11:00:00Z,26.4966,-82.1479,7.0,1111122 
SCCF RECON,ioos:station:SCCF:12:1,2009-04-09T12:00:00Z,26.4966,-82.1479,8.19,1111122 
SCCF RECON,ioos:station:SCCF:12:1,2009-04-09T13:00:00Z,26.4966,-82.1479,9.73,1111122 
SCCF RECON,ioos:station:SCCF:12:1,2009-04-09T14:00:00Z,26.4966,-82.1479,7.95,1111122 
SCCF RECON,ioos:station:SCCF:12:1,2009-04-09T15:00:00Z,26.4966,-82.1479,7.5,1111122 
SCCF RECON,ioos:station:SCCF:12:1,2009-04-09T16:00:00Z,26.4966,-82.1479,11.31,1111122 
SCCF RECON,ioos:station:SCCF:12:1,2009-04-09T17:00:00Z,26.4966,-82.1479,11.36,1111122 
SCCF RECON,ioos:station:SCCF:12:1,2009-04-09T18:00:00Z,26.4966,-82.1479,11.43,1111122 
SCCF RECON,ioos:station:SCCF:12:1,2009-04-09T19:00:00Z,26.4966,-82.1479,8.67,1111122 
SCCF RECON,ioos:station:SCCF:12:1,2009-04-09T20:00:00Z,26.4966,-82.1479,5.58,1111122 
SCCF RECON,ioos:station:SCCF:12:1,2009-04-09T21:00:00Z,26.4966,-82.1479,4.85,1111122 
SCCF RECON,ioos:station:SCCF:12:1,2009-04-09T22:00:00Z,26.4966,-82.1479,7.17,1111122 
SCCF RECON,ioos:station:SCCF:12:1,2009-04-09T23:00:00Z,26.4966,-82.1479,5.87,1111122 
SCCF RECON,ioos:station:SCCF:12:1,2009-04-10T00:00:00Z,26.4966,-82.1479,6.18,1111122 
SCCF RECON,ioos:station:SCCF:12:1,2009-04-10T01:00:00Z,26.4966,-82.1479,7.14,1111122 
SCCF RECON,ioos:station:SCCF:12:1,2009-04-10T02:00:00Z,26.4966,-82.1479,7.4,1111122 
SCCF RECON,ioos:station:SCCF:12:1,2009-04-10T03:00:00Z,26.4966,-82.1479,7.34,1111122 
SCCF RECON,ioos:station:SCCF:12:1,2009-04-10T04:00:00Z,26.4966,-82.1479,6.86,1111122 
SCCF RECON,ioos:station:SCCF:12:1,2009-04-10T05:00:00Z,26.4966,-82.1479,7.48,1111122 
SCCF RECON,ioos:station:SCCF:12:1,2009-04-10T06:00:00Z,26.4966,-82.1479,8.09,1111122 
SCCF RECON,ioos:station:SCCF:12:1,2009-04-10T07:00:00Z,26.4966,-82.1479,6.82,1111122 
SCCF RECON,ioos:station:SCCF:12:1,2009-04-10T08:00:00Z,26.4966,-82.1479,6.23,1111122 
SCCF RECON,ioos:station:SCCF:12:1,2009-04-10T09:00:00Z,26.4966,-82.1479,6.06,1111122 
SCCF RECON,ioos:station:SCCF:12:1,2009-04-10T10:00:00Z,26.4966,-82.1479,6.82,1111122 
SCCF RECON,ioos:station:SCCF:12:1,2009-04-10T11:00:00Z,26.4966,-82.1479,6.5,1111122 
SCCF RECON,ioos:station:SCCF:12:1,2009-04-10T12:00:00Z,26.4966,-82.1479,5.64,1111122 
SCCF RECON,ioos:station:SCCF:12:1,2009-04-10T13:00:00Z,26.4966,-82.1479,6.01,1111122 
SCCF RECON,ioos:station:SCCF:12:1,2009-04-10T14:00:00Z,26.4966,-82.1479,5.62,1111122 
SCCF RECON,ioos:station:SCCF:12:1,2009-04-10T15:00:00Z,26.4966,-82.1479,6.37,1111122 
SCCF RECON,ioos:station:SCCF:12:1,2009-04-10T16:00:00Z,26.4966,-82.1479,5.75,1111122 
SCCF RECON,ioos:station:SCCF:12:1,2009-04-10T17:00:00Z,26.4966,-82.1479,6.5,1111122 
SCCF RECON,ioos:station:SCCF:12:1,2009-04-10T18:00:00Z,26.4966,-82.1479,6.26,1111122 
SCCF RECON,ioos:station:SCCF:12:1,2009-04-10T19:00:00Z,26.4966,-82.1479,6.31,1111122 
SCCF RECON,ioos:station:SCCF:12:1,2009-04-10T20:00:00Z,26.4966,-82.1479,6.91,1111122 
SCCF RECON,ioos:station:SCCF:12:1,2009-04-10T21:00:00Z,26.4966,-82.1479,7.1,1111122 
SCCF RECON,ioos:station:SCCF:12:1,2009-04-10T22:00:00Z,26.4966,-82.1479,7.57,1111122 
SCCF RECON,ioos:station:SCCF:12:1,2009-04-10T23:00:00Z,26.4966,-82.1479,10.25,1111122 
SCCF RECON,ioos:station:SCCF:12:1,2009-04-11T00:00:00Z,26.4966,-82.1479,7.17,1111122 
SCCF RECON,ioos:station:SCCF:12:1,2009-04-11T01:00:00Z,26.4966,-82.1479,8.0,1111122 
SCCF RECON,ioos:station:SCCF:12:1,2009-04-11T02:00:00Z,26.4966,-82.1479,7.18,1111122 
SCCF RECON,ioos:station:SCCF:12:1,2009-04-11T03:00:00Z,26.4966,-82.1479,6.91,1111122 
SCCF RECON,ioos:station:SCCF:12:1,2009-04-11T04:00:00Z,26.4966,-82.1479,7.09,1111122 
SCCF RECON,ioos:station:SCCF:12:1,2009-04-11T05:00:00Z,26.4966,-82.1479,5.82,1111122 
SCCF RECON,ioos:station:SCCF:12:1,2009-04-11T06:00:00Z,26.4966,-82.1479,7.48,1111122 
SCCF RECON,ioos:station:SCCF:12:1,2009-04-11T07:00:00Z,26.4966,-82.1479,7.56,1111122 
SCCF RECON,ioos:station:SCCF:12:1,2009-04-11T08:00:00Z,26.4966,-82.1479,7.73,1111122 
SCCF RECON,ioos:station:SCCF:12:1,2009-04-11T09:00:00Z,26.4966,-82.1479,8.66,1111122 
SCCF RECON,ioos:station:SCCF:12:1,2009-04-11T10:00:00Z,26.4966,-82.1479,9.11,1111122 
SCCF RECON,ioos:station:SCCF:12:1,2009-04-11T11:00:00Z,26.4966,-82.1479,7.22,1111122 
SCCF RECON,ioos:station:SCCF:12:1,2009-04-11T12:00:00Z,26.4966,-82.1479,6.01,1111122 
SCCF RECON,ioos:station:SCCF:12:1,2009-04-11T13:00:00Z,26.4966,-82.1479,7.23,1111122 
SCCF RECON,ioos:station:SCCF:12:1,2009-04-11T14:00:00Z,26.4966,-82.1479,8.19,1111122 
SCCF RECON,ioos:station:SCCF:12:1,2009-04-11T15:00:00Z,26.4966,-82.1479,7.49,1111122 
SCCF RECON,ioos:station:SCCF:12:1,2009-04-11T16:00:00Z,26.4966,-82.1479,7.84,1111122 
SCCF RECON,ioos:station:SCCF:12:1,2009-04-11T17:00:00Z,26.4966,-82.1479,12.29,1111122 
SCCF RECON,ioos:station:SCCF:12:1,2009-04-11T18:00:00Z,26.4966,-82.1479,6.88,1111122 
SCCF RECON,ioos:station:SCCF:12:1,2009-04-11T19:00:00Z,26.4966,-82.1479,11.29,1111122 
SCCF RECON,ioos:station:SCCF:12:1,2009-04-11T20:00:00Z,26.4966,-82.1479,6.24,1111122 
SCCF RECON,ioos:station:SCCF:12:1,2009-04-11T21:00:00Z,26.4966,-82.1479,5.82,1111122 
SCCF RECON,ioos:station:SCCF:12:1,2009-04-11T22:00:00Z,26.4966,-82.1479,6.71,1111122 
SCCF RECON,ioos:station:SCCF:12:1,2009-04-11T23:00:00Z,26.4966,-82.1479,5.29,1111122 
SCCF RECON,ioos:station:SCCF:12:1,2009-04-12T00:00:00Z,26.4966,-82.1479,5.1,1111122 
SCCF RECON,ioos:station:SCCF:12:1,2009-04-12T01:00:00Z,26.4966,-82.1479,5.9,1111122 
SCCF RECON,ioos:station:SCCF:12:1,2009-04-12T02:00:00Z,26.4966,-82.1479,5.96,1111122 
SCCF RECON,ioos:station:SCCF:12:1,2009-04-12T03:00:00Z,26.4966,-82.1479,7.63,1111122 
SCCF RECON,ioos:station:SCCF:12:1,2009-04-12T04:00:00Z,26.4966,-82.1479,7.66,1111122 
SCCF RECON,ioos:station:SCCF:12:1,2009-04-12T05:00:00Z,26.4966,-82.1479,8.04,1111122 
SCCF RECON,ioos:station:SCCF:12:1,2009-04-12T06:00:00Z,26.4966,-82.1479,7.22,1111122 
SCCF RECON,ioos:station:SCCF:12:1,2009-04-12T07:00:00Z,26.4966,-82.1479,7.7,1111122 
SCCF RECON,ioos:station:SCCF:12:1,2009-04-12T08:00:00Z,26.4966,-82.1479,6.65,1111122 
SCCF RECON,ioos:station:SCCF:12:1,2009-04-12T09:00:00Z,26.4966,-82.1479,6.8,1111122 
SCCF RECON,ioos:station:SCCF:12:1,2009-04-12T10:00:00Z,26.4966,-82.1479,7.5,1111122 
SCCF RECON,ioos:station:SCCF:12:1,2009-04-12T11:00:00Z,26.4966,-82.1479,6.45,1111122 
SCCF RECON,ioos:station:SCCF:12:1,2009-04-12T12:00:00Z,26.4966,-82.1479,8.09,1111122 
SCCF RECON,ioos:station:SCCF:12:1,2009-04-12T13:00:00Z,26.4966,-82.1479,4.89,1111122 